CAPE
0 0 0 0 0 0 0 0 0 0 0 0 0 0 0 0 0 0 0 0 0 0 0 0 0 0 0 0 0 0 0 0 0 0 0 0 0 0 0 0 0 0 0
0 0 0 0 0 0 0 0 0 0 0 0 0 0 0 0 0 0 0 0 0 0 0 0 0 0 0 0 0 0 0 0 0 0 0 0 0 0 0 0 0 0 0
0 0 0 0 0 0 0 0 0 0 0 0 0 0 0 0 0 0 0 0 0 0 0 0 0 0 0 0 0 0 0 0 0 0 0 0 0 0 0 0 0 0 0
0 0 0 0 0 0 0 0 0 0 0 0 0 0 0 0 0 0 0 0 0 0 0 0 0 0 0 0 0 0 0 0 0 0 0 0 0 0 0 0 0 0 0
0 0 0 0 0 0 0 0 0 0 0 0 0 0 0 0 0 0 0 0 0 0 0 0 0 0 0 0 0 0 0 0 0 0 0 0 0 0 0 0 0 0 0
0 0 0 0 0 0 0 0 0 0 0 0 0 0 0 0 0 0 0 0 0 0 0 0 0 0 0 0 0 0 0 0 0 0 0 0 0 0 0 0 0 0 0
0 0 0 0 0 0 0 0 0 0 0 0 0 0 0 0 0 0 0 0 0 0 0 0 0 0 0 0 0 0 0 0 0 0 0 0 0 0 0 0 0 0 0
0 0 0 0 0 0 0 0 0 0 0 0 0 0 0 0 0 0 0 0 0 0 0 0 0 0 0 0 0 0 0 0 0 0 0 0 0 0 0 0 0 0 0
0 0 0 0 0 0 0 0 0 0 0 0 0 0 0 0 0 0 0 0 0 0 0 0 0 0 0 0 0 0 0 0 0 0 0 0 0 0 0 0 0 0 0
0 0 0 0 0 0 0 0 0 0 0 0 0 0 0 0 0 0 0 0 0 0 0 0 0 0 0 0 0 0 0 0 0 0 0 0 0 0 0 0 0 0 0
0 0 0 0 0 0 0 0 0 0 0 0 0 0 0 0 0 0 0 0 0 0 0 0 0 0 0 0 0 0 0 0 0 0 0 0 0 0 0 0 0 0 0
0 0 0 0 0 0 0 0 0 0 0 0 0 0 0 0 0 0 0 0 0 0 0 0 0 0 0 0 0 0 0 0 0 0 0 0 0 0 0 0 0 0 0
0 0 0 0 0 0 0 0 0 0 0 0 0 0 0 0 0 0 0 0 0 0 0 0 0 0 0 0 0 0 0 0 0 0 0 0 0 0 0 0 0 0 0
0 0 0 0 0 0 0 0 0 0 0 0 0 0 0 0 0 0 0 0 0 0 0 0 0 0 0 0 0 0 0 0 0 0 0 0 0 0 0 0 0 0 0
0 0 0 0 0 0 0 0 0 0 0 0 0 0 0 0 0 0 0 0 0 0 0 0 0 0 0 0 0 0 0 0 0 0 0 0 0 0 0 0 0 1 0
0 0 0 0 0 0 0 0 0 0 0 0 0 0 0 0 0 0 0 0 0 0 0 0 0 0 0 0 0 0 0 0 0 0 0 0 0 0 0 2 2 2 4
0 0 0 0 0 0 0 0 0 0 0 0 0 0 0 0 0 0 0 0 0 0 0 0 0 0 0 0 0 0 0 0 0 0 0 0 0 2 1 1 1 2 3
0 0 0 0 0 0 0 0 0 0 0 0 0 0 0 0 0 0 0 0 0 0 0 0 0 0 0 0 0 0 0 0 0 0 0 0 0 0 2 3 2 1 0
0 0 0 0 0 0 0 0 0 0 0 0 0 0 0 0 0 0 0 0 0 0 0 0 0 0 0 0 0 0 0 0 0 0 0 0 1 3 12 7 8 7 4
0 0 0 0 0 0 0 0 0 0 0 0 0 0 0 0 0 0 0 0 0 0 0 0 0 0 0 0 0 0 0 0 0 0 0 0 1 12 15 17 17 10 0
0 0 0 0 0 0 0 0 0 0 0 0 0 0 0 0 0 0 0 0 0 0 0 0 0 0 0 0 0 0 0 0 0 1 0 0 1 10 17 29 25 21 18
0 0 0 0 0 0 0 0 0 0 0 0 0 0 0 0 0 0 0 0 0 0 0 0 0 0 0 0 0 0 0 1 4 2 3 0 1 11 12 16 12 29 20
0 0 0 0 0 0 0 0 0 0 0 0 0 0 0 0 0 0 0 0 0 0 0 0 0 0 0 0 0 0 0 0 2 0 1 8 10 13 7 5 5 12 0
0 0 0 0 0 0 0 0 0 0 0 0 0 0 0 0 0 0 0 0 0 0 0 0 0 0 0 0 0 0 0 1 0 0 0 6 11 4 1 1 0 0 0
0 0 0 0 0 0 0 0 0 0 0 0 0 0 0 0 0 0 0 0 0 0 0 0 0 0 0 0 0 0 0 4 2 11 4 2 0 3 0 1 0 0 0
0 0 0 0 0 0 0 0 0 0 0 0 0 0 0 0 0 0 0 0 0 0 0 0 0 0 0 0 0 0 2 6 6 7 9 0 0 0 1 0 0 0 0
CIN
-0 -0 -0 -0 -0 -0 -0 -0 -0 -0 -0 -0 -0 -0 -0 -0 -0 -0 -0 -0 -0 -0 -0 -0 -0 -0 -0 -0 -0 -0 -0 -0 -0 -0 -0 -0 -0 -0 -0 -0 -0 -0 -0
-0 -0 -0 -0 -0 -0 -0 -0 -0 -0 -0 -0 -0 -0 -0 -0 -0 -0 -0 -0 -0 -0 -0 -0 -0 -0 -0 -0 -0 -0 -0 -0 -0 -0 -0 -0 -0 -0 -0 -0 -0 -0 -0
-0 -0 -0 -0 -0 -0 -0 -0 -0 -0 -0 -0 -0 -0 -0 -0 -0 -0 -0 -0 -0 -0 -0 -0 -0 -0 -0 -0 -0 -0 -0 -0 -0 -0 -0 -0 -0 -0 -0 -0 -0 -0 -0
-0 -0 -0 -0 -0 -0 -0 -0 -0 -0 -0 -0 -0 -0 -0 -0 -0 -0 -0 -0 -0 -0 -0 -0 -0 -0 -0 -0 -0 -0 -0 -0 -0 -0 -0 -0 -0 -0 -0 -0 -0 -0 -0
-0 -0 -0 -0 -0 -0 -0 -0 -0 -0 -0 -0 -0 -0 -0 -0 -0 -0 -0 -0 -0 -0 -0 -0 -0 -0 -0 -0 -0 -0 -0 -0 -0 -0 -0 -0 -0 -0 -0 -0 -0 -0 -0
-0 -0 -0 -0 -0 -0 -0 -0 -0 -0 -0 -0 -0 -0 -0 -0 -0 -0 -0 -0 -0 -0 -0 -0 -0 -0 -0 -0 -0 -0 -0 -0 -0 -0 -0 -0 -0 -0 -0 -0 -0 -0 -0
-0 -0 -0 -0 -0 -0 -0 -0 -0 -0 -0 -0 -0 -0 -0 -0 -0 -0 -0 -0 -0 -0 -0 -0 -0 -0 -0 -0 -0 -0 -0 -0 -0 -0 -0 -0 -0 -0 -0 -0 -0 -0 -0
-0 -0 -0 -0 -0 -0 -0 -0 -0 -0 -0 -0 -0 -0 -0 -0 -0 -0 -0 -0 -0 -0 -0 -0 -0 -0 -0 -0 -0 -0 -0 -0 -0 -0 -0 -0 -0 -0 -0 -0 -0 -0 -0
-0 -0 -0 -0 -0 -0 -0 -0 -0 -0 -0 -0 -0 -0 -0 -0 -0 -0 -0 -0 -0 -0 -0 -0 -0 -0 -0 -0 -0 -0 -0 -0 -0 -0 -0 -0 -0 -0 -0 -0 -0 -0 -0
-0 -0 -0 -0 -0 -0 -0 -0 -0 -0 -0 -0 -0 -0 -0 -0 -0 -0 -0 -0 -0 -0 -0 -0 -0 -0 -0 -0 -0 -0 -0 -0 -0 -0 -0 -0 -0 -0 -0 -0 -0 -0 -0
-0 -0 -0 -0 -0 -0 -0 -0 -0 -0 -0 -0 -0 -0 -0 -0 -0 -0 -0 -0 -0 -0 -0 -0 -0 -0 -0 -0 -0 -0 -0 -0 -0 -0 -0 -0 -0 -0 -0 -0 -0 -0 -0
-0 -0 -0 -0 -0 -0 -0 -0 -0 -0 -0 -0 -0 -0 -0 -0 -0 -0 -0 -0 -0 -0 -0 -0 -0 -0 -0 -0 -0 -0 -0 -0 -0 -0 -0 -0 -0 -0 -0 -0 -0 -0 -0
-0 -0 -0 -0 -0 -0 -0 -0 -0 -0 -0 -0 -0 -0 -0 -0 -0 -0 -0 -0 -0 -0 -0 -0 -0 -0 -0 -0 -0 -0 -0 -0 -0 -0 -0 -0 -0 -0 -0 -0 -0 -0 -0
-0 -0 -0 -0 -0 -0 -0 -0 -0 -0 -0 -0 -0 -0 -0 -0 -0 -0 -0 -0 -0 -0 -0 -0 -0 -0 -0 -0 -0 -0 -0 -0 -0 -0 -0 -0 -0 -0 -0 -0 -0 -0 -0
-0 -0 -0 -0 -0 -0 -0 -0 -0 -0 -0 -0 -0 -0 -0 -0 -0 -0 -0 -0 -0 -0 -0 -0 -0 -0 -0 -0 -0 -0 -0 -0 -0 -0 -0 -0 -0 -0 -0 -1 -0 -1 -1
-0 -0 -0 -0 -0 -0 -0 -0 -0 -0 -0 -0 -0 -0 -0 -0 -0 -0 -0 -0 -0 -0 -0 -0 -0 -0 -0 -0 -0 -0 -0 -0 -0 -0 -0 -0 -0 -0 -1 -0 -0 -1 -0
-0 -0 -0 -0 -0 -0 -0 -0 -0 -0 -0 -0 -0 -0 -0 -0 -0 -0 -0 -0 -0 -0 -0 -0 -0 -0 -0 -0 -0 -0 -0 -0 -0 -0 -0 -0 -0 -0 -1 -2 -6 -6 -5
-0 -0 -0 -0 -0 -0 -0 -0 -0 -0 -0 -0 -0 -0 -0 -0 -0 -0 -0 -0 -0 -0 -0 -0 -0 -0 -0 -0 -0 -0 -0 -0 -0 -0 -0 -3 -1 -5 -7 -4 -8 -6 -12
-0 -0 -0 -0 -0 -0 -0 -0 -0 -0 -0 -0 -0 -0 -0 -0 -0 -0 -0 -0 -0 -0 -0 -0 -0 -0 -0 -0 -0 -0 -0 -0 -0 -0 -0 -0 -2 -3 -0 -1 -1 -5 -6
-0 -0 -0 -0 -0 -0 -0 -0 -0 -0 -0 -0 -0 -0 -0 -0 -0 -0 -0 -0 -0 -0 -0 -0 -0 -0 -0 -0 -0 -0 -0 -0 -0 -0 -0 -0 -0 -0 -0 -1 -1 -1 -4
-0 -0 -0 -0 -0 -0 -0 -0 -0 -0 -0 -0 -0 -0 -0 -0 -0 -0 -0 -0 -0 -0 -0 -0 -0 -0 -0 -0 -0 -0 -0 -0 -3 -2 -0 -0 -0 -0 -0 -0 -0 -0 -0
-0 -0 -0 -0 -0 -0 -0 -0 -0 -0 -0 -0 -0 -0 -0 -0 -0 -0 -0 -0 -0 -0 -0 -0 -0 -0 -0 -0 -0 -0 -0 -0 -2 -4 -3 -0 -0 -0 -0 -0 -0 -0 -0
-0 -0 -0 -0 -0 -0 -0 -0 -0 -0 -0 -0 -0 -0 -0 -0 -0 -0 -0 -0 -0 -0 -0 -0 -0 -0 -0 -0 -0 -0 -0 -0 -1 -3 -0 -0 -0 -0 -0 -0 -0 -0 -0
-0 -0 -0 -0 -0 -0 -0 -0 -0 -0 -0 -0 -0 -0 -0 -0 -0 -0 -0 -0 -0 -0 -0 -0 -0 -0 -0 -0 -0 -0 -0 -0 -0 -0 -0 -0 -0 -1 -1 -1 -4 -0 -0
-0 -0 -0 -0 -0 -0 -0 -0 -0 -0 -0 -0 -0 -0 -0 -0 -0 -0 -0 -0 -0 -0 -0 -0 -0 -0 -0 -0 -0 -0 -0 -1 -1 -1 -0 -1 -2 -1 -0 -0 -0 -0 -0
-0 -0 -0 -0 -0 -0 -0 -0 -0 -0 -0 -0 -0 -0 -0 -0 -0 -0 -0 -0 -0 -0 -0 -0 -0 -0 -0 -0 -0 -0 -0 -0 -0 -2 -0 -0 -0 -0 -0 -0 -0 -0 -0
Wind_Speed
10 10 11 13 13 13 12 12 13 15 16 18 20 20 19 19 19 18 19 21 22 22 22 23 25 24 26 26 25 27 30 29 28 28 29 24 15 17 16 15 16 16 17
9 11 13 14 13 13 12 13 14 14 17 19 21 21 22 22 23 22 22 22 21 21 21 23 24 24 25 26 25 26 29 28 28 28 27 27 23 20 18 18 17 20 19
11 11 12 12 13 13 12 13 14 16 17 19 20 21 21 22 23 23 21 20 19 20 21 22 23 23 23 24 24 26 27 29 29 27 26 27 26 31 23 21 21 21 20
15 10 10 12 13 13 13 14 16 17 18 19 19 20 22 24 25 25 23 23 21 21 22 21 22 22 22 23 24 25 26 28 30 30 25 24 25 28 30 24 26 24 22
15 15 14 13 13 14 14 15 16 17 18 19 19 21 23 25 25 25 24 23 22 20 20 21 22 22 22 23 24 26 27 26 27 29 30 28 28 25 26 33 29 30 28
15 15 15 13 13 14 14 14 15 17 18 19 20 22 24 25 26 26 26 25 23 21 21 21 22 22 23 24 25 26 26 27 28 29 29 29 29 29 29 32 34 35 32
14 13 13 12 12 12 13 14 15 17 19 20 21 22 23 24 24 25 25 25 24 24 24 25 25 25 26 27 27 27 28 29 30 30 30 29 29 29 30 33 37 38 35
10 10 10 10 11 12 12 14 16 18 20 22 22 21 22 23 23 24 24 24 24 25 25 26 26 27 28 29 30 30 30 30 30 31 31 31 31 31 31 33 36 43 38
10 10 10 11 11 12 14 16 18 20 21 21 21 21 22 23 23 23 23 24 24 24 26 26 27 29 31 32 32 32 33 33 33 34 33 33 33 32 32 32 32 36 44
11 11 11 12 14 15 17 19 20 20 21 20 20 21 21 22 22 22 23 24 25 25 27 28 29 31 32 32 33 34 34 35 35 35 36 36 35 35 34 33 33 33 38
12 12 14 15 17 17 18 19 19 19 19 19 19 19 20 21 22 23 24 25 26 27 28 29 31 32 33 34 35 35 36 36 38 37 38 38 37 38 36 36 35 36 36
16 17 17 18 18 18 18 18 17 18 18 18 19 20 21 22 23 23 24 25 26 27 28 30 31 33 34 35 36 37 37 38 39 39 39 40 39 38 38 38 38 38 37
20 18 17 17 17 16 16 17 17 17 17 18 18 19 21 22 23 23 24 25 26 28 30 31 33 35 36 37 37 37 37 38 40 40 41 41 40 41 40 39 40 39 39
18 16 16 18 18 18 18 17 16 16 16 17 18 19 20 22 23 23 24 26 28 30 32 33 35 36 37 37 38 38 39 40 40 40 41 41 41 41 41 40 39 40 42
23 16 17 18 17 17 17 17 17 17 17 18 19 20 21 22 23 24 25 27 30 32 34 35 37 37 38 38 39 40 41 42 42 42 41 41 40 40 40 40 41 41 43
26 23 20 18 19 18 17 17 17 17 18 19 20 20 22 23 24 26 28 30 33 34 35 37 38 39 39 40 42 42 42 42 42 43 42 41 40 39 40 41 42 43 44
28 27 26 21 20 20 18 18 18 17 18 19 20 21 23 25 27 29 31 33 36 37 38 38 39 40 41 42 43 43 42 41 41 41 41 40 40 41 41 41 42 41 41
33 31 30 25 21 20 19 18 17 18 19 19 20 21 23 25 28 30 33 35 37 38 39 39 40 41 41 41 41 42 41 40 40 39 40 40 42 41 42 43 45 43 42
32 32 30 27 21 19 17 17 18 19 19 20 21 22 24 27 30 33 36 36 38 39 39 39 40 41 40 39 40 41 40 41 41 41 40 42 43 43 45 47 47 47 47
33 33 31 26 21 19 18 19 19 18 20 20 22 24 27 31 34 37 37 37 38 40 39 39 38 38 39 38 38 39 40 43 44 43 43 43 45 46 46 46 47 49 48
32 30 27 24 20 17 17 18 18 19 19 20 23 27 31 34 33 35 35 37 38 38 38 39 38 37 36 38 39 40 43 43 45 46 47 46 46 47 47 45 44 45 46
29 27 24 22 18 17 17 17 18 18 19 23 27 31 33 31 33 34 36 36 37 39 39 40 40 38 38 39 40 42 43 43 45 47 46 46 46 46 46 44 42 41 43
26 24 22 20 18 17 16 18 18 19 22 26 31 31 31 32 33 36 37 38 38 38 39 40 41 41 40 41 42 43 43 43 44 45 45 46 46 45 42 40 38 38 37
25 23 22 20 19 17 17 19 20 23 26 29 30 32 34 37 37 37 37 38 37 38 38 39 41 41 42 42 41 41 42 43 44 44 43 44 44 42 39 38 34 31 32
24 22 20 20 20 19 21 22 23 25 29 31 32 35 37 38 39 37 36 36 35 35 38 39 39 42 43 42 41 42 44 43 43 46 44 42 41 40 40 35 27 30 30
22 21 20 21 22 24 25 25 26 27 29 32 35 37 39 39 38 39 39 36 36 37 37 38 38 39 38 40 41 42 43 43 44 42 40 41 37 40 38 39 32 29 30
Wind_Direction
282 294 300 306 309 314 318 323 329 332 335 337 338 340 342 345 346 347 346 345 345 347 349 348 345 345 343 342 342 336 327 326 332 332 330 335 345 347 348 349 344 343 341
285 296 301 302 307 310 315 320 325 329 332 333 335 338 338 339 340 340 340 342 343 346 347 344 343 342 340 338 338 335 329 326 328 328 331 330 334 336 339 338 339 336 335
282 293 302 304 306 309 313 317 323 326 330 332 334 337 338 338 338 338 340 343 346 346 342 341 340 340 340 337 336 333 329 324 324 328 329 326 325 323 334 335 333 334 333
297 297 304 308 308 311 316 319 322 324 327 331 332 332 332 331 332 334 339 341 343 341 340 341 341 340 339 336 333 331 329 325 321 323 327 328 327 325 324 333 329 328 328
292 299 307 312 314 316 318 319 322 325 328 330 331 331 330 330 334 336 338 340 340 342 343 343 341 340 338 335 331 328 326 326 324 322 321 323 324 324 321 318 324 322 322
302 305 310 315 319 322 322 323 326 328 331 332 332 330 329 330 332 334 335 337 340 343 343 343 343 342 338 333 329 328 327 325 323 321 321 320 321 322 320 317 317 317 319
304 307 311 315 320 323 326 329 331 331 333 332 332 332 333 335 335 337 338 339 341 342 342 341 340 339 333 329 327 326 325 324 321 320 319 319 318 317 316 315 314 314 317
316 314 316 320 324 326 328 329 330 329 329 330 333 338 338 338 340 341 342 342 342 342 343 342 341 338 332 327 325 324 323 323 321 319 318 317 317 316 314 312 313 311 312
323 324 325 327 327 327 326 326 326 327 329 332 335 338 339 339 340 342 343 344 345 344 342 341 339 334 330 327 325 324 322 321 320 318 318 316 316 315 313 312 310 309 308
334 333 329 327 325 323 322 323 324 326 330 333 335 337 339 341 342 344 343 343 342 341 340 339 336 332 330 329 327 325 323 321 320 320 318 317 316 315 314 312 310 307 304
332 327 322 318 317 318 319 321 325 328 331 333 336 338 339 340 340 340 340 340 339 339 338 337 334 332 330 329 327 325 324 323 321 320 319 317 317 315 314 312 310 307 306
325 321 318 317 317 317 319 321 324 326 328 331 332 334 335 336 337 337 338 339 338 338 337 336 334 332 330 329 327 325 324 323 322 321 320 318 318 316 315 313 310 308 307
322 319 317 314 312 310 311 313 315 318 322 324 326 329 331 333 334 335 336 336 336 335 335 333 331 330 329 328 327 326 325 324 322 321 320 319 317 315 315 313 312 310 309
330 328 324 319 314 311 309 310 311 315 318 321 323 325 328 330 331 332 333 333 333 332 332 331 330 329 328 327 326 325 324 323 322 322 320 319 317 315 314 314 313 312 309
343 332 326 324 319 314 313 313 314 317 319 320 321 324 327 329 330 331 331 331 331 330 329 328 328 328 327 326 325 323 322 321 321 321 320 319 318 316 316 314 313 313 310
346 343 333 326 322 316 315 315 314 315 317 318 320 323 325 326 327 328 328 328 328 327 328 327 327 326 326 325 324 323 322 322 321 320 320 320 320 319 317 315 313 312 310
345 342 336 325 320 318 314 313 312 314 315 316 319 321 323 324 325 326 326 325 325 326 326 326 326 325 325 324 323 323 323 323 323 322 322 321 321 320 317 315 314 312 311
341 339 336 331 324 322 319 319 317 317 318 318 321 323 325 325 326 325 324 325 326 325 325 325 325 325 325 326 325 325 325 324 324 324 323 321 320 320 318 315 313 311 312
337 336 334 331 328 326 325 322 320 319 319 320 322 324 326 325 324 323 324 324 324 324 324 325 325 325 326 327 327 326 326 325 324 325 324 323 320 320 318 315 314 312 312
337 335 334 334 332 332 329 324 321 319 319 322 325 326 326 323 322 321 322 323 323 323 324 325 326 327 326 328 328 328 327 324 324 324 324 324 321 320 319 317 315 313 313
336 336 336 336 338 340 337 331 329 325 328 329 328 326 326 324 323 323 324 324 324 324 324 325 326 327 329 328 328 327 325 324 323 323 323 323 322 320 318 317 316 315 316
340 341 341 341 347 345 341 336 332 334 333 330 328 326 325 326 325 325 324 324 324 323 323 324 324 326 328 329 328 327 326 324 323 323 323 323 323 322 320 320 319 318 319
342 344 343 344 348 348 348 341 338 338 333 330 327 327 327 326 327 325 324 323 323 322 322 323 323 324 327 328 327 327 327 326 325 324 324 323 323 323 322 322 321 321 324
345 346 346 346 348 348 346 342 340 337 333 331 329 328 327 326 325 324 323 322 322 321 321 322 322 323 325 327 329 329 329 327 326 326 326 325 324 324 324 324 323 325 328
347 348 349 348 347 346 342 340 339 337 333 331 329 327 326 325 323 323 322 321 320 320 320 320 321 322 323 326 328 328 328 328 327 326 327 327 327 327 326 326 330 330 331
349 351 352 350 344 340 339 338 338 337 334 330 328 326 325 325 324 323 322 322 319 319 318 318 318 320 320 323 326 327 327 328 328 328 328 328 329 328 325 323 329 332 333